カタログに戻る

SL-14 DEB

運用中PO
NORAD 39971·DEBRIS·🇷🇺 Russia

打ち上げ Aug 18, 1987 から Plesetsk Cosmodrome

Loading…

次のパス (今後24時間)

TLE

最新Source: Space-Track

元期: Sep 14, 2026, 12:56 UTC

1 39971U 87068CX  26257.53907615  .00000713  00000-0  54934-3 0  9995
2 39971  82.4577 181.9804 0058016 170.2543 313.0825 13.90958016622348

AllMySatでSL-14 DEBをリアルタイム追跡

Download on the App Store